Skip Page Navigation
NASA JPL Caltech
NASA Logo - Jet Propulsion Laboratory + View the NASA Portal
+ Near-Earth Object (NEO) Program
Search JPL
JPL Home Earth Solar System Stars & Galaxies Technology
JPL Solar System Dynamics
BODIES ORBITS EPHEMERIDES TOOLS PHYSICAL DATA DISCOVERY FAQ SITE MAP
JPL Small-Body Database Browser
Search: [ help ]  
175629 Lambertini (2007 SX1)
Classification: Main-belt Asteroid          SPK-ID: 2175629
Ephemeris | Orbit Diagram | Orbital Elements | Physical Parameters | Discovery Circumstances ]

[ show orbit diagram ]
Orbital Elements at Epoch 2456400.5 (2013-Apr-18.0) TDB
Reference: MPO248309 (heliocentric ecliptic J2000)
 Element Value Uncertainty (1-sigma)   Units 
e 0.3038919 n/a  
a 2.7157959 n/a AU
q 1.8904875 n/a AU
i 6.67639 n/a deg
node 235.78413 n/a deg
peri 123.81319 n/a deg
M 92.91204 n/a deg
tp 2455978.5960411
(2012-Feb-21.09604110)
n/a JED
period 1634.7227463
4.48
n/a
n/a
d
yr
n 0.22022083 n/a deg/d
Q 3.5411043 n/a AU
  Orbit Determination Parameters
   # obs. used (total)      132  
   first obs. used      1998-??-??  
   last obs. used      2012-12-16  
   # oppositions      5  
   planetary ephem.      DE403  
   condition code      1  
   fit RMS      0.41  
   data source      MPC:mpu  
   producer      MPCLINUX  

Additional Information
 T_jup = 3.283 
 MPC critical-list numbered object 

Ephemeris | Orbit Diagram | Orbital Elements | Physical Parameters | Discovery Circumstances ]

Physical Parameter Table
Parameter Symbol Value Units Sigma Reference Notes
absolute magnitude H 15.9 mag n/a MPO248309  

175629 Lambertini           Discovered 2007 Sept. 19 by F. Tozzi and M. Graziani at Skylive Observatory.
Giovanni Lambertini (1916-1997) was an Italian friar and enthusiast of science who taught physics and astronomy to many children. One of the founders of the group of amateur astronomers in Ravenna, he developed a passion for astronomy in many young people, and this minor planet has been discovered by two of them.
NOTE: some special characters may not display properly (any characters within {} are an attempt to place the proper accent above a character)
Reference: 20080321/MPCPages.arcLast Updated: 2008-03-26

Alternate Designations
 2007 SX1 = 1998 SX61 
Ephemeris | Orbit Diagram | Orbital Elements | Physical Parameters | Discovery Circumstances ]
ABOUT SSD CREDITS/AWARDS PRIVACY/COPYRIGHT GLOSSARY LINKS
FirstGov 2013-May-19 19:59 UT
(server date/time)  
NASA Home Page
Site Manager:   Donald K. Yeomans
Webmaster  Alan B. Chamberlin